This is the latest recevied weather packets stored in our database for station/object NZ3C. If no packets are shown the sender has not sent any weather packets the latest 1 day(s).
| Time | Temp. | Humidity | Pressure | Rain* | Wind** | Luminosity | Snow |
|---|---|---|---|---|---|---|---|
| 1777986072 | 20.56° C | 62% | 1019.5 hPa | 0 mm | 0.89 m/s, 182° | 394 W/m² | - |
| 1777985768 | 20.56° C | 63% | 1019.4 hPa | 0 mm | 0.89 m/s, 279° | 380 W/m² | - |
| 1777985465 | 20.56° C | 62% | 1019.6 hPa | 0 mm | 0.89 m/s, 315° | 362 W/m² | - |
| 1777985161 | 20° C | 65% | 1019.5 hPa | 0 mm | 0.45 m/s, 242° | 344 W/m² | - |
| 1777984857 | 19.44° C | 65% | 1019.6 hPa | 0 mm | 1.34 m/s, 255° | 325 W/m² | - |
| 1777984554 | 18.89° C | 67% | 1019.7 hPa | 0 mm | 0.45 m/s, 241° | 306 W/m² | - |
| 1777984250 | 18.89° C | 67% | 1019.6 hPa | 0 mm | 0 m/s | 281 W/m² | - |
| 1777983947 | 18.89° C | 68% | 1019.6 hPa | 0 mm | 0.45 m/s, 280° | 221 W/m² | - |
| 1777983644 | 18.33° C | 69% | 1019.5 hPa | 0 mm | 0.89 m/s, 86° | 235 W/m² | - |
| 1777983341 | 18.33° C | 69% | 1019.3 hPa | 0 mm | 0.89 m/s, 254° | 228 W/m² | - |
| 1777983038 | 18.33° C | 70% | 1019.3 hPa | 0 mm | 0 m/s | 235 W/m² | - |
| 1777982734 | 17.78° C | 71% | 1019.2 hPa | 0 mm | 0.45 m/s, 228° | 214 W/m² | - |
| 1777982429 | 16.67° C | 75% | 1019.2 hPa | 0 mm | 0 m/s | 200 W/m² | - |
| 1777982124 | 16.11° C | 78% | 1019.3 hPa | 0 mm | 0.45 m/s, 283° | 180 W/m² | - |
| 1777981822 | 15.56° C | 79% | 1019.2 hPa | 0 mm | 0.45 m/s, 271° | 123 W/m² | - |
| 1777981519 | 15° C | 81% | 1019.1 hPa | 0 mm | 0.45 m/s, 223° | 112 W/m² | - |
| 1777981215 | 14.44° C | 82% | 1019.1 hPa | 0 mm | 0.45 m/s, 201° | 49 W/m² | - |
| 1777980912 | 14.44° C | 83% | 1019.1 hPa | 0 mm | 0.45 m/s, 211° | 41 W/m² | - |
| 1777980609 | 13.89° C | 85% | 1019 hPa | 0 mm | 0 m/s | 39 W/m² | - |
| 1777980305 | 13.33° C | 88% | 1019.1 hPa | 0 mm | 0.45 m/s, 204° | 37 W/m² | - |
| 1777980003 | 12.78° C | 90% | 1018.9 hPa | 0 mm | 0 m/s | 35 W/m² | - |
| 1777979702 | 12.22° C | 91% | 1018.8 hPa | 0 mm | 0 m/s | 32 W/m² | - |
| 1777979398 | 12.22° C | 92% | 1018.7 hPa | 0 mm | 0 m/s | 29 W/m² | - |
| 1777979095 | 11.67° C | 92% | 1018.7 hPa | 0 mm | 0 m/s | 27 W/m² | - |
| 1777978792 | 11.67° C | 92% | 1018.8 hPa | 0 mm | 0 m/s | 24 W/m² | - |
* Rain latest hour (hover to see other rain measurements)
** Current wind speed in m/s (hover to see current wind gust speed)